Location: Arborea
(39.7744°N, 8.5819°E)
Time: 00:39:40
(UTC+00:00)

Cosmos 1000 Rocket - Pass Details

Date: 11 October 2023
Orbit: 952 x 993 km, 82.9° (Epoch: 03 December)

Event Time Altitude Azimuth Distance (km) Brightness Sun altitude
Rises 19:54:54 0° 204° (SSW) 3,690 7.5 -35.2°
Enters shadow 19:56:25 - 207° (SSW) 3,144 7.2 -35.5°
Exits shadow 20:02:32 42° 257° (WSW) 1,386 5.5 -36.5°
Maximum altitude 20:03:33 45° 282° (WNW) 1,327 5.4 -36.7°
Drops below altitude 10° 20:09:35 10° 355° (N) 2,760 7.1 -37.8°
Sets 20:12:15 0° 1° (N) 3,710 7.8 -38.2°
